Torna al catalogo

SL-8 DEB

AttivoLEO
NORAD 21750·DEBRIS·🇷🇺 Russia

Lanciato Feb 12, 1991 da Plesetsk Cosmodrome

Loading…

Prossimi Passaggi (prossime 24 ore)

TLE

AggiornatoSource: Space-Track

Epoca: Sep 14, 2026, 10:22 UTC

1 21750U 91009CQ  26257.43226558  .00000154  00000-0  14065-2 0  9999
2 21750  74.0717 241.4046 0135878 243.1455 274.3713 12.29715512588968

Traccia SL-8 DEB in tempo reale con AllMySat

Download on the App Store